STARLINK-34365, 64671

Orbit data source: Space-Track

STARLINK-34365, 64671 is a payload satellite owned by SpaceX/Seattle (US) in LEO that was launched on Sat, 28 Jun 2025 UTC via an FALCON 9 launch vehicle from the Air Force Eastern Test Range (AFETR). Payload-class satellites include a variety of spacecraft equipped with specific instruments for various scientific and technological missions. These include communications satellites like Starlink; space stations such as the ISS; scientific satellites like the Hubble; Earth observation satellites from companies like Planet Labs, Umbra, and HawkEye 360; GPS; miniature CubeSats for education and research; and military/defense satellites.

Loading next visibility...
Identifier
64671, 2025-139H
Orbit
LEO
Country
Flag of USUS
Related business
Manufacturer
SpaceX/Seattle
Mission
Operational Commercial Communications
Bus & Motor
STARLINK V2MO, Unknown motor
Mass
575 kg wet, ~530 kg dry
Launch date (UTC)
2025-06-28 (1 year ago)
Launch vehicle
FALCON 9
Launch site
Air Force Eastern Test Range (AFETR)
Object type
Payload
Rocket body
Debris
Shape & HBR
Box + 2 Pan, 17.7 m
Radar Cross Section
36.964 m², Large (>1 m²)

Expand to show TLE details & history
Last TLE update: 21 hours ago

TLE from 21 hours ago
0 STARLINK-34365
1 64671U 25139H   26170.97264191  .00014193  00000-0  43026-3 0  9995
2 64671  53.1587  10.5641 0001179  79.6250 280.4885 15.34409983 56023
Epoch: 2026-06-19T23:20Z
TLE epoch observation values (Epoch: 2026-06-19T23:20:36.261Z)
Latitude
-0.00003°
Longitude
112.21904°
Altitude
463.428 km
Speed
7.636 km/s
True Right ascension
00h 42m 15s
True Declination
0° 00' 00"
Sunlit
Object was in daylight at epoch
Visualization orbit readout
Latitude
Unknown
Longitude
Unknown
Altitude
Unknown
Speed
Unknown
Apparent Right ascension
Unknown
Apparent Declination
Unknown
Sunlit
N/A
Visualization observer readout
Local Sidereal Time
07:19:17
Azimuth
Unknown
Elevation
Unknown
Doppler factor
Unknown
Orbital elements
Apogee altitude
463.737 km
Perigee altitude
462.124 km
Semi-major axis
6,841.068 km
Eccentricity
0.00012
Inclination
53.1587°
RAAN
10.5641°
Arg. of periapsis
79.625°
True anomaly
280.47522°
Mean anomaly
280.4885°
Eccentric anomaly
280.48186°
Mean motion
3.83581 °/min
Orbital period
93.85 mins
BSTAR
0.00043026
Loading maneuver chart data...
Computing Atmospheric mass density...
Loading historical data...
Loading historical data...
Loading historical data...
Loading historical data...
Loading historical data...
Loading historical data...
Loading historical data...

Documentation

Showing up to 5 results
|